Total_Precipitation_Accumulation
2.60 2.87 2.87 2.74 2.71 2.81 2.73 2.58 2.36 2.37 2.33 2.14 1.99 2.04 2.09 2.13 2.23 2.41 2.55 2.52 2.53 2.77 3.22 3.50 3.55 3.41 3.31 3.26 3.18 3.06 2.91 2.80 2.77 2.68 2.57 2.43 2.32 2.25 2.21 2.21 2.17 1.99 1.93
3.18 3.34 3.31 3.13 2.96 3.04 2.98 2.85 2.73 2.81 2.79 2.74 2.52 2.41 2.31 2.39 2.39 2.45 2.67 2.85 2.74 2.70 3.11 3.66 3.95 3.93 3.79 3.66 3.40 3.16 3.07 3.01 2.96 2.86 2.76 2.57 2.34 2.30 2.29 2.30 2.29 2.13 2.00
3.73 3.80 3.79 3.49 3.24 3.28 3.48 3.43 3.32 3.29 3.02 2.93 2.81 2.73 2.61 2.49 2.50 2.58 2.78 3.15 3.09 3.13 3.28 3.37 3.54 3.65 3.76 3.93 3.91 3.68 3.45 3.27 3.14 3.06 2.97 2.86 2.66 2.45 2.38 2.38 2.45 2.38 2.20
3.80 3.93 3.92 3.76 3.61 3.55 3.82 3.96 3.87 3.80 3.62 3.51 3.31 3.04 2.82 2.76 2.74 2.88 2.99 3.21 3.45 3.42 3.53 3.40 3.22 3.29 3.56 3.79 3.95 3.99 3.84 3.54 3.32 3.27 3.23 3.15 2.92 2.76 2.59 2.50 2.52 2.50 2.38
4.16 4.24 4.12 4.10 4.13 4.21 4.21 3.96 4.05 3.88 3.91 3.79 3.33 3.13 2.84 2.78 2.92 2.91 3.03 3.12 3.31 3.28 3.29 3.21 3.16 3.14 3.33 3.69 3.80 4.00 4.03 3.91 3.71 3.55 3.52 3.45 3.25 3.02 2.81 2.65 2.51 2.45 2.40
4.57 4.82 4.77 4.69 4.69 4.64 4.45 4.35 4.36 4.11 3.92 3.78 3.31 3.07 2.85 2.70 2.69 2.80 2.81 2.85 2.91 2.84 2.77 2.84 3.13 3.03 3.12 3.30 3.38 3.59 3.87 4.03 3.88 3.68 3.58 3.58 3.42 3.09 2.76 2.64 2.57 2.49 2.45
5.34 5.40 5.21 5.05 4.92 4.88 4.78 4.72 4.55 4.33 4.05 3.93 3.85 3.47 2.93 2.63 2.58 2.53 2.53 2.60 2.66 2.70 2.67 2.69 2.71 2.71 2.72 2.87 2.90 3.07 3.37 3.74 3.85 3.81 3.77 3.65 3.51 3.28 2.96 2.72 2.67 2.63 2.55
5.50 5.41 5.47 5.41 5.23 5.09 4.92 4.72 4.61 4.42 4.05 3.96 3.95 3.83 3.35 2.95 2.54 2.19 2.19 2.24 2.35 2.54 2.43 2.35 2.43 2.50 2.49 2.60 2.59 2.83 3.05 3.28 3.57 3.72 3.64 3.48 3.33 3.29 3.26 3.10 2.95 2.84 2.76
5.66 5.46 5.35 5.16 5.01 4.90 4.79 4.59 4.41 4.27 4.05 3.89 3.83 3.95 3.64 3.19 2.74 2.38 2.06 2.01 2.04 2.18 2.16 2.16 2.15 2.23 2.34 2.46 2.45 2.59 2.74 2.77 3.09 3.39 3.49 3.38 3.24 3.13 3.10 3.11 3.09 3.04 2.97
5.26 5.02 4.90 4.81 4.64 4.31 4.11 3.94 3.87 3.74 3.61 3.43 3.46 3.41 3.26 3.08 3.07 2.93 2.63 2.39 2.27 2.20 2.19 2.10 2.05 2.14 2.18 2.31 2.46 2.47 2.44 2.44 2.67 2.94 3.18 3.26 3.18 3.19 3.18 3.16 3.14 3.13 3.14
4.67 4.38 4.27 4.14 3.90 3.51 3.17 3.04 3.14 3.21 3.21 3.11 3.10 3.15 3.14 2.98 2.92 2.91 2.84 2.70 2.57 2.34 2.23 2.25 2.24 2.20 2.15 2.14 2.20 2.30 2.27 2.14 2.24 2.40 2.71 2.97 3.07 3.19 3.24 3.17 3.17 3.15 3.18
4.13 3.75 3.41 3.16 2.93 2.75 2.56 2.52 2.57 2.64 2.85 2.95 3.07 3.08 3.06 2.96 2.86 2.90 2.80 2.73 2.71 2.53 2.30 2.18 2.18 2.14 2.09 2.06 1.99 2.16 1.97 1.87 1.86 1.94 2.12 2.37 2.62 2.77 2.78 2.91 3.08 3.18 3.27
3.36 3.04 2.73 2.61 2.48 2.36 2.28 2.29 2.31 2.27 2.37 2.56 2.68 2.76 2.83 2.83 2.80 2.86 2.97 2.92 2.75 2.57 2.45 2.26 2.10 2.02 1.99 2.01 1.99 2.02 1.83 1.73 1.65 1.64 1.65 1.75 1.89 2.11 2.26 2.45 2.64 2.83 2.96
2.58 2.35 2.14 1.98 1.96 2.02 1.96 2.03 2.05 2.06 2.07 2.15 2.24 2.46 2.56 2.57 2.58 2.57 2.63 2.74 2.79 2.63 2.39 2.22 2.09 1.95 1.85 1.76 1.76 1.74 1.53 1.54 1.41 1.37 1.38 1.44 1.49 1.57 1.71 1.81 1.92 2.02 2.11
1.92 1.80 1.73 1.68 1.64 1.70 1.80 1.83 1.79 1.81 1.91 1.92 1.95 2.08 2.13 2.14 2.17 2.24 2.34 2.42 2.61 2.64 2.41 2.12 1.98 1.83 1.64 1.50 1.55 1.36 1.32 1.36 1.22 1.14 1.11 1.14 1.18 1.25 1.33 1.39 1.49 1.53 1.55
1.62 1.60 1.55 1.48 1.42 1.43 1.47 1.55 1.57 1.59 1.63 1.70 1.74 1.76 1.80 1.79 1.84 1.92 2.07 2.21 2.28 2.36 2.29 1.94 1.69 1.56 1.47 1.30 1.35 1.20 1.23 1.27 1.09 1.06 1.02 1.03 1.07 1.15 1.18 1.23 1.26 1.34 1.35
1.35 1.33 1.26 1.19 1.16 1.19 1.24 1.34 1.37 1.42 1.47 1.53 1.61 1.60 1.60 1.61 1.68 1.69 1.71 1.79 1.96 2.05 2.05 1.80 1.60 1.53 1.46 1.35 1.31 1.28 1.24 1.18 1.05 1.06 1.00 1.00 1.03 1.04 1.05 1.07 1.08 1.12 1.22
1.19 1.15 1.08 1.03 1.01 1.03 1.07 1.12 1.15 1.19 1.31 1.34 1.36 1.38 1.37 1.41 1.45 1.46 1.50 1.52 1.61 1.75 1.82 1.81 1.68 1.61 1.52 1.40 1.38 1.38 1.15 0.98 0.97 0.99 0.90 0.86 0.87 0.88 0.90 0.91 0.91 0.89 0.92
1.17 1.09 0.98 0.94 0.92 0.92 0.92 0.97 1.03 1.03 1.06 1.13 1.17 1.24 1.26 1.29 1.26 1.20 1.25 1.34 1.38 1.45 1.65 1.67 1.59 1.52 1.42 1.31 1.41 1.32 1.20 1.27 0.97 0.90 0.82 0.76 0.75 0.73 0.74 0.76 0.78 0.77 0.73
1.08 1.01 0.96 0.90 0.87 0.84 0.86 0.88 0.86 0.89 0.94 1.00 1.02 1.07 1.08 1.11 1.13 1.16 1.18 1.30 1.36 1.49 1.57 1.58 1.54 1.49 1.40 1.32 1.43 1.43 1.39 1.36 1.13 0.83 0.80 0.70 0.72 0.71 0.70 0.70 0.69 0.67 0.64
1.07 1.01 0.95 0.89 0.77 0.72 0.71 0.74 0.74 0.77 0.86 0.89 0.91 0.90 0.89 0.95 1.04 1.05 1.02 1.12 1.27 1.44 1.45 1.46 1.46 1.47 1.41 1.43 1.42 1.36 1.37 1.38 1.27 1.05 1.05 0.88 0.84 0.89 0.88 0.82 0.74 0.71 0.63
0.99 0.95 0.87 0.80 0.71 0.60 0.64 0.64 0.64 0.70 0.81 0.85 0.84 0.82 0.79 0.78 0.84 0.90 0.92 0.98 1.12 1.24 1.32 1.40 1.41 1.44 1.44 1.53 1.55 1.52 1.49 1.51 1.49 1.23 1.23 1.14 1.02 1.11 1.03 0.93 0.83 0.70 0.63
1.01 0.93 0.84 0.80 0.78 0.70 0.56 0.49 0.53 0.64 0.80 0.80 0.80 0.84 0.76 0.70 0.81 0.84 0.87 0.86 0.89 0.93 1.04 1.25 1.41 1.47 1.57 1.72 1.80 1.73 1.64 1.61 1.61 1.39 1.43 1.38 1.24 1.30 1.05 0.90 0.92 0.78 0.67
0.95 0.93 0.91 0.93 0.93 0.75 0.55 0.42 0.47 0.63 0.74 0.69 0.70 0.78 0.85 0.87 0.81 0.81 0.83 0.86 0.90 0.90 0.92 1.00 1.25 1.35 1.37 1.54 1.74 1.79 1.75 1.66 1.65 1.62 1.69 1.65 1.31 1.24 1.09 1.26 1.22 1.02 0.83
0.89 0.88 0.89 0.96 0.97 0.84 0.64 0.50 0.52 0.64 0.72 0.70 0.70 0.68 0.70 0.77 0.75 0.80 0.88 1.02 1.06 1.06 0.86 0.90 1.03 1.11 1.16 1.30 1.43 1.60 1.79 1.89 1.84 1.73 1.70 1.70 1.48 1.33 1.33 1.54 1.45 1.34 1.09
0.81 0.75 0.80 0.91 0.91 0.82 0.64 0.50 0.51 0.55 0.66 0.77 0.85 0.84 0.80 0.76 0.74 0.80 0.93 1.10 1.16 1.15 1.14 1.26 1.38 1.38 1.37 1.41 1.36 1.52 1.81 1.93 1.90 1.85 1.70 1.70 1.69 1.62 1.68 1.70 1.65 1.53 1.43